Tracking 30308 objects as of 19-Apr-2025
HD Live streaming from Space Station
objects crossing your sky now

STARLINK-1371

Track STARLINK-1371 now!
10-day predictions
STARLINK-1371 is classified as:


NORAD ID: 45542
Int'l Code: 2020-025M
Perigee: 553.3 km
Apogee: 555.4 km
Inclination: 53.1 °
Period: 95.6 minutes
Semi major axis: 6925 km
RCS: Unknown
Launch date: April 22, 2020
Source: United States (US)
Launch site: AIR FORCE EASTERN TEST RANGE (AFETR)
Your satellite tracking list
Your tracking list is empty




NASA's NSSDC Master Catalog

Two Line Element Set (TLE):
1 45542U 20025M   25109.20592230 -.00000532  00000-0 -16795-4 0  9993
2 45542  53.0541 123.2812 0001520 107.0155 253.1000 15.06400093275593
Source of the keplerian elements: AFSPC